Lakeland Region, FL

10:33 AM EDT on April 29, 2017 (GMT -0400)
Lakeland Linder Regional

Weather History for KLAL - February, 2013

Change the Weather History Date:

Thursday, February 7, 2013

  Actual Average Record
Temperature  
Mean Temperature 70 °F -  
Max Temperature 80 °F 70 °F 84 °F (2008)
Min Temperature 59 °F 51 °F 36 °F (1988)
Cooling Degree Days 4    
Growing Degree Days 20 (Base 50)    
Moisture  
Dew Point 59 °F    
Average Humidity 75    
Maximum Humidity 94    
Minimum Humidity 39    
Precipitation  
Precipitation 0.00 in - - ()
Sea Level Pressure  
Sea Level Pressure 30.01 in    
Wind  
Wind Speed 9 mph (SSE)    
Max Wind Speed 21 mph    
Max Gust Speed 26 mph    
Visibility 11 miles    
Events Rain    
Averages and records for this station are not official NWS values.
T = Trace of Precipitation, MM = Missing Value Source: NWS Daily Summary

Daily Weather History Graph

Daily Weather History Graph

Search for Another Location

Airport or City:

Trip Planner

Search our weather history database for the weather conditions in past years. The results will help you decide how hot, cold, wet, or windy it might be!

Date:

Astronomy

Feb. 07, 2013 Rise Set
Actual Time 7:11 AM EST 6:13 PM EST
Civil Twilight 6:47 AM EST 6:37 PM EST
Nautical Twilight 6:19 AM EST 7:05 PM EST
Astronomical Twilight 5:51 AM EST 7:33 PM EST
Moon 4:42 AM EST (2/7) 3:43 PM EST (2/7)
Length of Visible Light 11h 50m
Length of Day
11h 02m
Waning Crescent, 9% of the Moon is Illuminated
Feb 7
Waning Crescent
Feb 10
New
Feb 17
First Quarter
Feb 25
Full
Mar 4
Last Quarter

Hourly Weather History & Observations

Time (EST) Temp. Heat Index Dew Point Humidity Pressure Visibility Wind Dir Wind Speed Gust Speed Precip Events Conditions
12:15 AM 66.2 °F - 59.0 °F 78% 30.08 in 10.0 mi ESE 9.2 mph - N/A   Scattered Clouds
12:35 AM 64.4 °F - 57.2 °F 77% 30.08 in 10.0 mi SE 8.1 mph - N/A   Scattered Clouds
12:55 AM 64.4 °F - 57.2 °F 77% 30.09 in 10.0 mi SE 5.8 mph - N/A   Scattered Clouds
1:15 AM 64.4 °F - 57.2 °F 77% 30.08 in 10.0 mi SE 8.1 mph - N/A   Mostly Cloudy
1:35 AM 66.2 °F - 57.2 °F 73% 30.08 in 10.0 mi SE 9.2 mph - N/A   Overcast
1:55 AM 64.4 °F - 57.2 °F 77% 30.08 in 10.0 mi SE 6.9 mph - N/A   Scattered Clouds
2:15 AM 64.4 °F - 57.2 °F 77% 30.07 in 10.0 mi SE 10.4 mph - N/A   Scattered Clouds
2:35 AM 64.4 °F - 57.2 °F 77% 30.07 in 10.0 mi SE 8.1 mph - N/A   Scattered Clouds
2:55 AM 64.4 °F - 57.2 °F 77% 30.06 in 10.0 mi ESE 6.9 mph - N/A   Clear
3:15 AM 62.6 °F - 57.2 °F 82% 30.06 in 10.0 mi ESE 6.9 mph - N/A   Clear
3:35 AM 62.6 °F - 57.2 °F 82% 30.05 in 10.0 mi ESE 5.8 mph - N/A   Clear
3:55 AM 62.6 °F - 57.2 °F 82% 30.05 in 10.0 mi East 4.6 mph - N/A   Clear
4:15 AM 60.8 °F - 57.2 °F 88% 30.06 in 10.0 mi Calm Calm - N/A   Clear
4:35 AM 60.8 °F - 57.2 °F 88% 30.06 in 10.0 mi East 3.5 mph - N/A   Clear
4:55 AM 60.8 °F - 55.4 °F 82% 30.06 in 10.0 mi East 3.5 mph - N/A   Clear
5:15 AM 60.8 °F - 57.2 °F 88% 30.06 in 10.0 mi Calm Calm - N/A   Scattered Clouds
5:35 AM 60.8 °F - 57.2 °F 88% 30.07 in 10.0 mi Calm Calm - N/A   Mostly Cloudy
5:50 AM 60.8 °F - 57.2 °F 88% 30.06 in 10.0 mi East 4.6 mph - N/A   Mostly Cloudy
6:50 AM 59.0 °F - 57.2 °F 94% 30.07 in 7.0 mi Calm Calm - N/A   Scattered Clouds
8:50 AM 66.2 °F - 62.6 °F 88% 30.08 in 8.0 mi SSE 6.9 mph - N/A   Overcast
10:50 AM 75.2 °F - 62.6 °F 65% 30.08 in 10.0 mi SSE 11.5 mph 20.7 mph N/A   Mostly Cloudy
1:50 PM 80.6 °F 80.8 °F 57.2 °F 45% 29.97 in 15.0 mi SSE 13.8 mph 20.7 mph N/A   Mostly Cloudy
2:50 PM 80.6 °F 80.5 °F 55.4 °F 42% 29.93 in 15.0 mi South 16.1 mph 25.3 mph N/A   Mostly Cloudy
3:53 PM 80.6 °F 80.5 °F 55.4 °F 42% 29.92 in 15.0 mi South 15.0 mph 20.7 mph N/A   Mostly Cloudy
4:21 PM 80.6 °F 80.3 °F 53.6 °F 39% 29.93 in 15.0 mi SSW 16.1 mph 23.0 mph N/A   Mostly Cloudy
4:52 PM 78.8 °F - 53.6 °F 42% 29.94 in 15.0 mi SW 20.7 mph - N/A   Mostly Cloudy
5:53 PM 75.2 °F - 55.4 °F 50% 29.90 in 15.0 mi SSW 20.7 mph 25.3 mph N/A   Mostly Cloudy
6:52 PM 73.4 °F - 60.8 °F 65% 29.95 in 15.0 mi SW 17.3 mph 26.5 mph N/A   Overcast
7:54 PM 71.6 °F - 62.6 °F 73% 29.93 in 5.0 mi South 17.3 mph - N/A Rain Light Rain
8:51 PM 69.8 °F - 64.4 °F 83% 29.94 in 10.0 mi SSW 12.7 mph 17.3 mph N/A   Overcast
9:55 PM 68.0 °F - 62.6 °F 83% 29.93 in 10.0 mi SW 11.5 mph - N/A   Scattered Clouds
9:56 PM 69.8 °F - 64.4 °F 83% 29.93 in 10.0 mi SW 12.7 mph 17.3 mph N/A   Overcast
10:15 PM 68.0 °F - 62.6 °F 83% 29.93 in 10.0 mi SSW 11.5 mph - N/A   Scattered Clouds
10:35 PM 68.0 °F - 62.6 °F 83% 29.93 in 10.0 mi SSW 10.4 mph - N/A   Mostly Cloudy
10:55 PM 68.0 °F - 62.6 °F 83% 29.93 in 10.0 mi SW 11.5 mph - N/A   Scattered Clouds
11:15 PM 68.0 °F - 62.6 °F 83% 29.93 in 10.0 mi SW 9.2 mph - N/A   Scattered Clouds
11:35 PM 68.0 °F - 62.6 °F 83% 29.93 in 10.0 mi SW 8.1 mph - N/A   Clear
11:55 PM 68.0 °F - 62.6 °F 83% 29.93 in 10.0 mi SW 9.2 mph - N/A   Clear